Baltimore Martin, MD

5:47 PM EDT on July 24, 2017 (GMT -0400)
Martin State

Weather History for KMTN - November, 2012

Change the Weather History Date:

Thursday, November 8, 2012

  Actual Average Record
Temperature  
Mean Temperature 45 °F -  
Max Temperature 53 °F 54 °F 86 °F (2005)
Min Temperature 37 °F 39 °F 32 °F (2007)
Degree Days  
Heating Degree Days 20    
Moisture  
Dew Point 23 °F    
Average Humidity 45    
Maximum Humidity 81    
Minimum Humidity 24    
Precipitation  
Precipitation 0.00 in - - ()
Sea Level Pressure  
Sea Level Pressure 29.93 in    
Wind  
Wind Speed 13 mph (WNW)    
Max Wind Speed 23 mph    
Max Gust Speed 31 mph    
Visibility 10 miles    
Events Rain    
Averages and records for this station are not official NWS values.
T = Trace of Precipitation, MM = Missing Value Source: NWS Daily Summary

Daily Weather History Graph

Daily Weather History Graph

Search for Another Location

Airport or City:

Trip Planner

Search our weather history database for the weather conditions in past years. The results will help you decide how hot, cold, wet, or windy it might be!

Date:

Astronomy

Nov. 08, 2012 Rise Set
Actual Time 6:41 AM EST 4:56 PM EST
Civil Twilight 6:13 AM EST 5:24 PM EST
Nautical Twilight 5:41 AM EST 5:56 PM EST
Astronomical Twilight 5:10 AM EST 6:28 PM EST
Moon 12:36 AM EST (11/8) 1:34 PM EST (11/8)
Length of Visible Light 11h 11m
Length of Day
10h 14m
Waning Crescent, 33% of the Moon is Illuminated
Nov 8
Waning Crescent
Nov 13
New
Nov 20
First Quarter
Nov 28
Full
Dec 6
Last Quarter

Hourly Weather History & Observations

Time (EST) Temp. Windchill Dew Point Humidity Pressure Visibility Wind Dir Wind Speed Gust Speed Precip Events Conditions
12:06 AM 37.4 °F 28.5 °F 32.0 °F 81% 29.88 in 10.0 mi WNW 15.0 mph 19.6 mph N/A Rain Light Rain
12:27 AM 37.4 °F 29.8 °F 32.0 °F 81% 29.87 in 10.0 mi WNW 11.5 mph - N/A Rain Light Rain
12:48 AM 39.2 °F 31.2 °F 32.0 °F 75% 29.87 in 10.0 mi WNW 13.8 mph 20.7 mph N/A Rain Light Rain
1:12 AM 39.2 °F 32.0 °F 32.0 °F 75% 29.87 in 10.0 mi WNW 11.5 mph 16.1 mph N/A Rain Light Rain
1:33 AM 41.0 °F 34.7 °F 32.0 °F 70% 29.88 in 10.0 mi WNW 10.4 mph 18.4 mph N/A Rain Rain
1:54 AM 41.0 °F 34.7 °F 30.2 °F 65% 29.88 in 10.0 mi WNW 10.4 mph - N/A   Light Drizzle
2:15 AM 41.0 °F 33.5 °F 30.2 °F 65% 29.88 in 10.0 mi WNW 13.8 mph 19.6 mph N/A   Scattered Clouds
2:36 AM 41.0 °F 32.8 °F 28.4 °F 61% 29.87 in 10.0 mi WNW 16.1 mph - N/A   Scattered Clouds
2:57 AM 41.0 °F 33.9 °F 26.6 °F 57% 29.87 in 10.0 mi WNW 12.7 mph 20.7 mph N/A   Scattered Clouds
3:18 AM 41.0 °F 33.5 °F 26.6 °F 57% 29.87 in 10.0 mi WNW 13.8 mph 21.9 mph N/A   Scattered Clouds
4:00 AM 41.0 °F 33.9 °F 24.8 °F 53% 29.87 in 10.0 mi WNW 12.7 mph 17.3 mph N/A   Scattered Clouds
4:21 AM 41.0 °F 33.9 °F 23.0 °F 49% 29.87 in 10.0 mi NW 12.7 mph 19.6 mph N/A   Scattered Clouds
4:36 AM 41.0 °F 33.9 °F 23.0 °F 49% 29.87 in 10.0 mi WNW 12.7 mph 21.9 mph N/A   Scattered Clouds
5:45 AM 42.8 °F 37.0 °F 21.2 °F 42% 29.88 in 10.0 mi WNW 10.4 mph 19.6 mph N/A   Mostly Cloudy
6:45 AM 42.8 °F 36.6 °F 19.4 °F 39% 29.90 in 10.0 mi WNW 11.5 mph - N/A   Mostly Cloudy
7:50 AM 44.6 °F 38.4 °F 19.4 °F 37% 29.91 in 10.0 mi WNW 12.7 mph 18.4 mph N/A   Mostly Cloudy
8:45 AM 44.6 °F 38.8 °F 19.4 °F 37% 29.93 in 10.0 mi NW 11.5 mph - N/A   Mostly Cloudy
9:45 AM 46.4 °F 39.2 °F 19.4 °F 34% 29.94 in 10.0 mi NW 18.4 mph 23.0 mph N/A   Mostly Cloudy
10:50 AM 50.0 °F - 21.2 °F 32% 29.94 in 10.0 mi NW 17.3 mph 25.3 mph N/A   Scattered Clouds
11:50 AM 51.8 °F - 19.4 °F 28% 29.92 in 10.0 mi WNW 23.0 mph 27.6 mph N/A   Scattered Clouds
12:45 PM 53.6 °F - 17.6 °F 24% 29.91 in 10.0 mi WNW 17.3 mph 24.2 mph N/A   Scattered Clouds
1:45 PM 53.6 °F - 19.4 °F 26% 29.90 in 10.0 mi West 19.6 mph 27.6 mph N/A   Partly Cloudy
2:50 PM 53.6 °F - 17.6 °F 24% 29.91 in 10.0 mi NW 18.4 mph 31.1 mph N/A   Partly Cloudy
3:55 PM 53.6 °F - 17.6 °F 24% 29.92 in 10.0 mi NW 20.7 mph 31.1 mph N/A   Partly Cloudy
4:45 PM 50.0 °F - 17.6 °F 28% 29.93 in 10.0 mi WNW 11.5 mph 19.6 mph N/A   Scattered Clouds
5:50 PM 48.2 °F - 17.6 °F 30% 29.95 in 10.0 mi WNW 12.7 mph - N/A   Scattered Clouds
5:55 PM 48.2 °F - 17.6 °F 30% 29.95 in 10.0 mi WNW 12.7 mph - N/A   Scattered Clouds
6:50 PM 46.4 °F 41.1 °F 19.4 °F 34% 29.97 in 10.0 mi WNW 11.5 mph - N/A   Clear
7:55 PM 46.4 °F 40.4 °F 19.4 °F 34% 29.99 in 10.0 mi WNW 13.8 mph - N/A   Clear
8:55 PM 46.4 °F 40.4 °F 19.4 °F 34% 30.00 in 10.0 mi WNW 13.8 mph 19.6 mph N/A   Clear
9:21 PM 46.4 °F 40.7 °F 21.2 °F 37% 30.01 in 10.0 mi WNW 12.7 mph - N/A   Clear
9:42 PM 42.8 °F 37.5 °F 21.2 °F 42% 30.02 in 10.0 mi WNW 9.2 mph - N/A   Clear
9:45 PM 41.0 °F 34.7 °F 21.2 °F 45% 30.02 in 10.0 mi WNW 10.4 mph - N/A   Clear
10:03 PM 42.8 °F 37.0 °F 21.2 °F 42% 30.02 in 10.0 mi WNW 10.4 mph 17.3 mph N/A   Clear
10:27 PM 44.6 °F 40.2 °F 21.2 °F 39% 30.02 in 10.0 mi WNW 8.1 mph - N/A   Clear
10:48 PM 42.8 °F 39.3 °F 21.2 °F 42% 30.03 in 10.0 mi WNW 5.8 mph - N/A   Clear
11:09 PM 41.0 °F 35.8 °F 23.0 °F 49% 30.03 in 10.0 mi West 8.1 mph - N/A   Clear
11:30 PM 42.8 °F 36.6 °F 26.6 °F 53% 30.04 in 10.0 mi WNW 11.5 mph - N/A   Clear